Date String (YYYY-MM-DD hh:mm:ss) UTC,Instrument flags,Ambient pressure (hPa),Sample flow (lpm),Bypass flow (lpm),Sample temperature (°C),Ambient temperature (°C),ASC tube jacket temperature (°C),LED temperature (°C),Box temperature (°C),Sample RH (%),Span deviation,Mass concentration (μg/m³),Mass concentration (μg/m³),Mass concentration (μg/m³)
DateTimeUTC,F1_M11,P_M11,Q1_M11,Q2_M11,T1_M11,T2_M11,T3_M11,T4_M11,T5_M11,U1_M11,ZSPAN_M11,X2_M11,X0_M11,X1_M11
2022-05-07 08:00:00,,0819.8,5.00,0.00,30.0,28.9,00.0,39.0,31.7,10.5,0000.0,0003.55,0008.63,0002.20
2022-05-07 08:01:00,,0819.8,5.00,0.00,30.0,28.9,00.0,39.0,31.7,10.4,0000.0,0003.58,0008.98,0002.21
2022-05-07 08:02:00,,0819.8,5.01,0.00,30.0,28.9,00.0,39.0,31.7,10.5,0000.0,0003.56,0008.92,0002.21
2022-05-07 08:03:00,,0819.8,5.00,0.00,30.0,29.0,00.0,39.0,31.8,10.9,0000.0,0003.53,0008.83,0002.21
2022-05-07 08:04:00,,0819.8,5.00,0.00,30.0,29.0,00.0,39.0,31.8,10.7,0000.0,0003.52,0008.81,0002.19
2022-05-07 08:05:00,,0819.9,5.00,0.00,30.0,29.0,00.0,39.0,31.8,10.6,0000.0,0003.54,0008.69,0002.20
2022-05-07 08:06:00,,0820.0,4.99,0.00,30.0,29.0,00.0,39.0,31.7,10.6,0000.0,0003.63,0009.14,0002.21
2022-05-07 08:07:00,,0819.9,5.00,0.00,30.1,29.0,00.0,39.0,31.8,10.8,0000.0,0003.68,0009.80,0002.24
2022-05-07 08:08:00,,0819.9,5.01,0.00,30.1,29.0,00.0,39.0,31.8,10.8,0000.0,0003.73,0010.40,0002.27
2022-05-07 08:09:00,,0819.9,5.00,0.00,30.1,29.0,00.0,39.0,31.8,11.1,0000.0,0003.79,0010.59,0002.31
2022-05-07 08:10:00,,0819.9,5.01,0.00,30.1,29.0,00.0,39.0,31.7,11.6,0000.0,0003.82,0010.26,0002.32
2022-05-07 08:11:00,,0819.9,5.00,0.00,30.0,29.0,00.0,39.0,31.7,11.0,0000.0,0003.84,0010.17,0002.32
2022-05-07 08:12:00,,0819.9,4.99,0.00,30.0,28.9,00.0,39.0,31.7,10.7,0000.0,0003.87,0009.90,0002.30
2022-05-07 08:13:00,,0819.9,5.00,0.00,30.0,28.9,00.0,39.0,31.7,10.7,0000.0,0003.88,0009.93,0002.31
2022-05-07 08:14:00,,0819.9,5.00,0.00,30.0,28.9,00.0,39.0,31.7,10.8,0000.0,0003.92,0010.07,0002.29
2022-05-07 08:15:00,,0819.9,5.00,0.00,30.0,28.9,00.0,39.0,31.7,10.9,0000.0,0003.94,0010.10,0002.28
2022-05-07 08:16:00,,0819.8,5.01,0.00,30.0,29.0,00.0,39.0,31.7,10.6,0000.0,0003.94,0010.06,0002.26
2022-05-07 08:17:00,,0819.9,5.01,0.00,30.0,29.0,00.0,39.0,31.7,10.9,0000.0,0003.93,0009.78,0002.24
2022-05-07 08:18:00,,0819.9,5.00,0.00,30.0,29.0,00.0,39.0,31.8,11.1,0000.0,0003.89,0009.18,0002.20
2022-05-07 08:19:00,,0819.9,5.00,0.00,30.0,29.0,00.0,39.0,31.8,10.7,0000.0,0003.88,0008.69,0002.19
2022-05-07 08:20:00,,0819.9,5.00,0.00,30.0,28.9,00.0,39.0,31.7,10.6,0000.0,0003.82,0008.52,0002.16
2022-05-07 08:21:00,,0819.9,5.00,0.00,30.0,28.9,00.0,39.0,31.7,10.9,0000.0,0003.78,0008.57,0002.14
2022-05-07 08:22:00,,0819.9,5.01,0.00,30.0,28.9,00.0,39.0,31.8,10.9,0000.0,0003.76,0008.60,0002.15
2022-05-07 08:23:00,,0819.9,5.01,0.00,30.0,29.0,00.0,39.0,31.7,10.6,0000.0,0003.73,0008.56,0002.15
2022-05-07 08:24:00,,0819.9,5.00,0.00,30.0,29.0,00.0,39.0,31.7,10.6,0000.0,0003.72,0008.55,0002.13
2022-05-07 08:25:00,,0819.9,5.00,0.00,30.0,28.9,00.0,39.0,31.7,10.8,0000.0,0003.68,0008.76,0002.15
2022-05-07 08:26:00,,0819.8,4.99,0.00,30.0,29.0,00.0,39.0,31.7,10.8,0000.0,0003.68,0009.06,0002.15
2022-05-07 08:27:00,,0819.8,4.99,0.00,30.0,29.0,00.0,39.0,31.7,10.7,0000.0,0003.67,0009.31,0002.15
2022-05-07 08:28:00,,0819.8,4.99,0.00,30.0,29.0,00.0,39.0,31.7,10.7,0000.0,0003.67,0009.55,0002.18
2022-05-07 08:29:00,,0819.7,5.01,0.00,30.0,29.0,00.0,39.0,31.7,10.6,0000.0,0003.73,0009.98,0002.19
2022-05-07 08:30:00,,0819.7,5.01,0.00,30.0,29.1,00.0,39.0,31.8,10.6,0000.0,0003.73,0010.77,0002.19
2022-05-07 08:31:00,,0819.7,4.99,0.00,30.0,29.1,00.0,39.0,31.8,10.6,0000.0,0003.78,0010.95,0002.19
2022-05-07 08:32:00,,0819.6,5.01,0.00,30.0,29.1,00.0,39.0,31.7,10.7,0000.0,0003.78,0010.83,0002.21
2022-05-07 08:33:00,,0819.6,5.01,0.00,30.0,29.1,00.0,39.0,31.8,10.8,0000.0,0003.82,0010.98,0002.20
2022-05-07 08:34:00,,0819.6,5.00,0.00,30.0,29.1,00.0,39.0,31.7,10.8,0000.0,0003.83,0011.29,0002.23
2022-05-07 08:35:00,,0819.6,4.99,0.00,30.0,29.1,00.0,39.0,31.8,11.1,0000.0,0003.80,0011.52,0002.23
2022-05-07 08:36:00,,0819.6,4.99,0.00,30.0,29.1,00.0,39.0,31.8,11.0,0000.0,0003.81,0012.27,0002.22
2022-05-07 08:37:00,,0819.6,5.00,0.00,30.0,29.1,00.0,39.0,31.7,11.0,0000.0,0003.76,0011.87,0002.22
2022-05-07 08:38:00,,0819.6,5.01,0.00,30.0,29.1,00.0,39.0,31.7,11.0,0000.0,0003.76,0011.70,0002.22
2022-05-07 08:39:00,,0819.5,5.01,0.00,30.0,29.1,00.0,39.0,31.7,10.8,0000.0,0003.73,0011.62,0002.20
2022-05-07 08:40:00,,0819.5,5.00,0.00,30.0,29.1,00.0,39.0,31.8,10.7,0000.0,0003.69,0011.36,0002.19
2022-05-07 08:41:00,,0819.5,5.00,0.00,30.0,29.1,00.0,39.0,31.7,10.7,0000.0,0003.71,0010.66,0002.21
2022-05-07 08:42:00,,0819.5,5.00,0.00,30.0,29.0,00.0,39.0,31.7,10.6,0000.0,0003.70,0010.56,0002.21
2022-05-07 08:43:00,,0819.4,5.00,0.00,30.0,29.1,00.0,39.0,31.7,10.5,0000.0,0003.76,0010.83,0002.22
2022-05-07 08:44:00,,0819.4,5.01,0.00,30.0,29.1,00.0,39.0,31.7,10.4,0000.0,0003.79,0010.80,0002.24
2022-05-07 08:45:00,,0819.4,5.00,0.00,30.0,29.1,00.0,39.0,31.8,10.5,0000.0,0003.86,0011.15,0002.25
2022-05-07 08:46:00,,0819.4,4.99,0.00,30.0,29.1,00.0,39.0,31.8,10.7,0000.0,0003.88,0010.94,0002.26
2022-05-07 08:47:00,,0819.4,5.00,0.00,30.0,29.0,00.0,39.0,31.7,11.4,0000.0,0003.88,0009.98,0002.26
2022-05-07 08:48:00,,0819.4,5.01,0.00,30.0,29.0,00.0,39.0,31.7,10.7,0000.0,0003.93,0010.12,0002.26
2022-05-07 08:49:00,,0819.4,5.00,0.00,30.0,29.0,00.0,39.0,31.8,10.6,0000.0,0003.93,0010.36,0002.27
2022-05-07 08:50:00,,0819.4,5.00,0.00,30.0,29.0,00.0,39.0,31.8,10.5,0000.0,0003.96,0010.31,0002.28
2022-05-07 08:51:00,,0819.4,5.00,0.00,30.0,29.0,00.0,39.0,31.7,10.5,0000.0,0003.94,0010.26,0002.28
2022-05-07 08:52:00,,0819.4,4.99,0.00,30.0,28.9,00.0,39.0,31.7,10.5,0000.0,0003.93,0010.36,0002.26
2022-05-07 08:53:00,,0819.4,4.99,0.00,30.0,28.9,00.0,39.0,31.7,10.6,0000.0,0003.92,0010.41,0002.27
2022-05-07 08:54:00,,0819.4,5.00,0.00,30.0,28.9,00.0,39.0,31.7,11.1,0000.0,0003.92,0010.45,0002.26
2022-05-07 08:55:00,,0819.3,5.00,0.00,30.0,28.9,00.0,39.0,31.7,11.1,0000.0,0003.91,0010.81,0002.22
2022-05-07 08:56:00,,0819.2,5.01,0.00,30.0,28.9,00.0,39.0,31.7,10.8,0000.0,0003.83,0011.10,0002.17
2022-05-07 08:57:00,,0819.2,5.01,0.00,30.0,28.9,00.0,39.0,31.7,10.8,0000.0,0003.82,0011.76,0002.15
2022-05-07 08:58:00,,0819.2,4.99,0.00,29.9,28.9,00.0,39.0,31.7,10.7,0000.0,0003.82,0011.75,0002.15
2022-05-07 08:59:00,,0819.2,4.99,0.00,29.9,28.9,00.0,39.0,31.7,10.7,0000.0,0003.79,0011.96,0002.15
